Regional Weather Roundup
Issued by NWS

Home | Current Version | Previous Version | Text Only | Print | Product List | Glossary Off
Versions: 1 2 3 4 5 6 7 8 9 10 11 12 13 14 15 16 17 18 19 20 21 22 23 24 25 26 27

000
ASUS45 KPSR 170410
RWRAZ

ARIZONA HOURLY REGIONAL WEATHER ROUNDUP
NATIONAL WEATHER SERVICE PHOENIX AZ
900 PM MST MON OCT 16 2017

NOTE: FAIR INDICATES FEW OR NO CLOUDS BELOW 12,000 FEET WITH NO
SIGNIFICANT WEATHER AND/OR OBSTRUCTIONS TO VISIBILITY.

AZZ001>003-036-170500-
NORTHWEST ARIZONA

CITY           SKY/WX    TMP DP  RH WIND       PRES   REMARKS
BULLHEAD CITY  CLEAR     82   5   5 N10       30.03R
KINGMAN        CLEAR     59  15  18 SE7       30.21R
$$

AZZ004>008-015-016-018-170500-
NORTH CENTRAL ARIZONA

CITY           SKY/WX    TMP DP  RH WIND       PRES   REMARKS
GRAND CANYON   CLEAR     37   4  25 CALM      30.41R
WILLIAMS       PTCLDY    54  21  28 S10       30.40R
PRESCOTT       CLEAR     62  30  29 S9        30.29R
FLAGSTAFF      PTCLDY    44  18  35 CALM      30.43S
PAYSON           N/A     64  34  32 CALM      30.32R
PAGE           CLEAR     54  14  20 CALM      30.28S
$$

AZZ009>014-017-170500-
NORTHEAST ARIZONA

CITY           SKY/WX    TMP DP  RH WIND       PRES   REMARKS
WINSLOW        CLEAR     52   7  16 S8        30.31R
SAINT JOHNS    CLEAR     55  20  25 SW6       30.33R
WINDOW ROCK    PTCLDY    42  11  28 CALM      30.42S
SHOW LOW       CLEAR     57  32  38 S7        30.40S
$$

AZZ540-542>544-546-548-170500-
GREATER PHOENIX AREA

CITY           SKY/WX    TMP DP  RH WIND       PRES   REMARKS
PHOENIX        CLEAR     85  40  20 SW3       29.98R
BUCKEYE          N/A     77  30  18 N9        29.99S
LUKE AFB       CLEAR     78  40  25 N9        29.98R
DEER VALLEY    CLEAR     82  33  17 N7        30.01R
SCOTTSDALE     CLEAR     85  36  17 N7        30.03R
MESA-GATEWAY   PTCLDY    75  45  33 E3        30.02R
CHANDLER       CLEAR     82  41  23 VRB5      30.00R
$$

AZZ539-553-170500-
SOUTHWEST MARICOPA COUNTY AND PINAL COUNTY

CITY           SKY/WX    TMP DP  RH WIND       PRES   REMARKS
CASA GRANDE    NOT AVBL
GILA BEND      CLEAR     81  34  18 E1        29.96S
$$

AZZ503-504-507>509-170500-
SOUTHEAST ARIZONA

CITY           SKY/WX    TMP DP  RH WIND       PRES   REMARKS
TUCSON         CLEAR     79  43  27 SE7       30.11R
DAVIS-MONTHAN  CLEAR     79  41  25 VRB3      30.09R
NOGALES        CLEAR     79  47  32 CALM      30.17R
SIERRA VISTA   CLEAR     69  44  40 SE6       30.27R
DOUGLAS        CLEAR     71  45  39 E10       30.23S
SAFFORD        CLEAR     72  42  34 E9        30.18R
$$

AZZ532-170500-
SOUTHWEST ARIZONA

CITY           SKY/WX    TMP DP  RH WIND       PRES   REMARKS
YUMA           CLEAR     83  22  10 NW5       29.96R
$$

CAZ041-043-047-048-061-525>527-560>570-170500-
SOUTHERN CALIFORNIA

CITY           SKY/WX    TMP DP  RH WIND       PRES   REMARKS
DOWNTOWN L.A.  CLEAR     75  48  38 CALM      29.99R
L.A. AIRPORT   CLEAR     75  51  43 CALM      29.99R
SAN DIEGO      PTCLDY    78  43  28 CALM      30.02R
BURBANK        CLEAR     81  26  13 W6        30.01S
ONTARIO        PTCLDY    80  29  15 CALM      30.03R
RIVERSIDE      CLEAR     80  33  18 CALM      30.03R
PALM SPRINGS   CLEAR     82  27  13 NW5       30.02R
EL CENTRO NAS  CLEAR     73  23  15 W8        29.98R
IMPERIAL       CLEAR     73  39  29 W6        29.96R
BLYTHE         CLEAR     79  10   7 W5        29.99R
NEEDLES        CLEAR     76   4   6 W8        30.04S
$$

NVZ020-UTZ003-170500-
SOUTHERN NEVADA-UTAH

CITY           SKY/WX    TMP DP  RH WIND       PRES   REMARKS
LAS VEGAS      PTCLDY    69  13  11 SW3       30.13S
SALT LAKE CITY CLEAR     50  35  56 CALM      30.32S
$$

NMZ009-TXZ055-170500-
NEW MEXICO-WEST TEXAS

CITY           SKY/WX    TMP DP  RH WIND       PRES   REMARKS
ALBUQUERQUE    CLEAR     56  23  27 E8        30.36R
EL PASO        CLEAR     66  40  38 E5        30.30S
$$


........................KEY........................
SKY/WX - SKY CONDITION/WEATHER
TMP    - TEMPERATURE IN FAHRENHEIT
DP     - DEW POINT IN FAHRENHEIT
RH     - RELATIVE HUMIDITY IN PERCENT
WIND   - DIRECTION AND SPEED IN MILES PER HOUR (MPH)
VRB    - VARIABLE WIND DIRECTION
PRES   - MEAN SEA LEVEL PRESSURE IN INCHES OF MERCURY
         F - FALLING PRESSURE   R - RISING PRESSURE
         S - STEADY PRESSURE
VSB    - VISIBILITY IN MILES
HX     - HEAT INDEX IN FAHRENHEIT
WCI    - WIND CHILL INDEX IN FAHRENHEIT
TC     - TEMPERATURE IN CELSIUS WHICH IS ALSO KNOWN AS
         TEMPERATURE IN CENTIGRADE
AFB    - AIR FORCE BASE
         LUKE AFB IS LUKE AIR FORCE BASE
         DAVIS-MONTHAN IS DAVIS-MONTHAN AIR FORCE BASE
NAS    - NAVAL AIR STATION
         EL CENTRO NAS IS EL CENTRO NAVAL AIR STATION
N/A    - NOT AVAILABLE





USA.gov is the U.S. government's official web portal to all federal, state and local government web resources and services.